Date,TemperatureHighF,TemperatureAvgF,TemperatureLowF,DewpointHighF,DewpointAvgF,DewpointLowF,HumidityHigh,HumidityAvg,HumidityLow,PressureMaxIn,PressureMinIn,WindSpeedMaxMPH,WindSpeedAvgMPH,GustSpeedMaxMPH,PrecipitationSumIn
2013-1-1,20.2,15.5,1.3,-0.1,-6.9,-10.4,76,37,27,30.35,30.07,7,2,22,0.00
2013-1-2,21.3,15.9,10.0,-4.3,-7.7,-10.9,41,34,27,30.39,30.20,5,1,20,0.00
2013-1-3,40.5,14.6,-1.4,-3.1,-9.2,-21.6,59,38,9,30.58,30.17,1,0,5,0.00
2013-1-4,44.5,19.9,8.3,9.9,2.2,-4.2,66,48,21,30.46,30.03,2,0,2,0.00
2013-1-5,37.6,22.7,6.9,6.6,-5.4,-15.3,56,32,11,30.41,30.05,7,1,21,0.00
2013-1-6,47.9,31.3,7.6,-2.7,-10.4,-21.0,38,19,6,30.34,29.71,10,2,20,0.00
2013-1-7,45.1,37.6,25.8,-0.6,-9.2,-19.5,30,14,6,29.91,29.65,6,2,17,0.00
2013-1-8,34.7,32.4,30.0,13.2,9.2,-9.7,45,38,14,30.14,29.62,12,5,28,0.00
2013-1-9,51.9,37.2,26.4,10.2,5.7,0.5,45,28,13,30.29,29.85,3,0,5,0.00
2013-1-10,45.8,32.1,21.3,11.4,2.1,-6.6,51,31,11,29.85,29.37,7,1,14,0.00
2013-1-11,33.8,19.2,9.2,19.3,0.3,-13.5,76,44,24,29.84,29.15,14,5,45,0.00
2013-1-12,14.3,5.7,-4.3,-4.9,-14.1,-18.6,72,42,24,30.25,29.85,7,1,15,0.00
2013-1-13,10.7,-1.1,-8.9,-2.9,-10.3,-16.9,71,65,45,30.45,30.18,4,0,10,0.00
2013-1-14,12.4,-0.6,-12.0,-2.5,-16.0,-20.5,73,51,26,30.57,30.18,7,1,13,0.00
2013-1-15,31.9,21.7,6.5,12.9,-1.3,-21.3,45,36,24,30.31,30.05,9,2,18,0.00
2013-1-16,43.5,31.3,17.2,14.2,11.6,8.4,69,45,28,30.36,30.01,8,2,18,0.00
2013-1-17,47.9,28.4,10.0,14.7,5.0,-4.4,76,44,15,30.65,30.02,9,1,29,0.00
2013-1-18,41.9,37.4,34.9,1.4,-1.1,-3.5,21,19,16,30.10,29.94,10,5,27,0.00
2013-1-19,41.3,36.1,34.1,-0.2,-3.2,-7.8,22,18,12,30.12,29.93,8,3,20,0.00
2013-1-20,41.9,35.4,24.1,6.4,-2.6,-10.0,45,20,13,30.16,29.96,9,2,25,0.00
2013-1-21,41.8,36.3,31.9,4.8,-0.4,-11.0,28,21,11,30.15,29.93,11,4,25,0.00
2013-1-22,48.6,42.8,37.9,-8.4,-14.7,-23.2,13,8,5,30.03,29.87,12,6,24,0.00
2013-1-23,52.6,47.4,42.3,-2.9,-11.7,-27.0,14,8,4,29.97,29.88,11,5,30,0.00
2013-1-24,48.5,43.4,39.2,23.3,6.5,-9.3,50,26,10,29.93,29.74,12,5,24,0.00
2013-1-25,45.4,41.0,37.9,24.2,21.6,16.3,52,46,39,29.99,29.82,12,4,26,0.00
2013-1-26,50.1,40.2,30.4,29.2,21.9,16.1,87,50,27,29.86,29.57,8,1,16,0.00
2013-1-27,43.9,39.0,26.0,28.0,18.0,12.4,89,44,30,29.64,29.51,10,3,28,0.00
2013-1-28,41.9,31.6,19.7,24.5,13.7,4.4,80,49,28,29.62,29.41,7,1,22,0.00
2013-1-29,22.2,15.2,5.0,14.3,-5.7,-11.4,80,40,24,30.09,29.56,8,2,17,0.00
2013-1-30,27.2,20.0,8.8,11.4,2.4,-10.4,58,46,31,30.02,29.82,12,6,26,0.00
2013-1-31,32.5,28.9,25.7,14.1,10.6,6.8,61,46,34,30.11,29.82,14,7,32,0.00
2013-2-1,32.9,30.6,28.8,16.6,10.8,6.8,53,43,33,30.08,29.95,12,5,30,0.00
2013-2-2,44.5,35.7,29.3,8.7,3.3,-1.1,41,26,17,30.23,30.04,10,3,22,0.00
2013-2-3,46.4,39.0,31.9,2.2,-8.0,-21.2,23,14,6,30.05,29.71,5,3,16,0.00
2013-2-4,40.3,34.7,31.0,8.1,1.2,-5.0,34,24,17,29.87,29.71,13,5,29,0.00
2013-2-5,48.2,39.8,33.1,16.6,12.3,6.3,43,32,27,29.94,29.60,7,3,22,0.00
2013-2-6,41.8,37.0,26.3,26.4,16.3,8.9,80,44,33,29.97,29.59,3,1,11,0.00
2013-2-7,43.2,26.3,11.6,9.3,-4.0,-27.6,78,33,5,30.26,29.94,4,0,11,0.00
2013-2-8,46.0,27.0,12.1,2.3,-5.6,-12.9,38,25,11,30.11,29.58,2,0,5,0.00
2013-2-9,32.5,22.0,12.9,21.2,9.4,-0.3,81,59,37,29.76,29.45,4,0,11,0.00
2013-2-10,26.1,18.7,10.0,12.0,-1.7,-99.9,73,48,30,30.19,29.51,7,-45,13,0.00
2013-2-11,24.7,14.3,4.5,13.2,5.8,-2.5,81,69,44,30.22,29.99,4,0,10,0.01
2013-2-12,36.8,23.4,14.9,2.7,-5.0,-19.1,43,29,16,30.22,29.93,12,3,26,0.00
2013-2-13,32.7,27.7,22.2,9.7,4.7,-0.4,45,37,30,30.02,29.86,13,6,28,0.00
2013-2-14,34.1,22.4,11.2,16.3,3.4,-99.9,75,51,31,30.30,29.92,11,-31,13,0.00
2013-2-15,29.0,21.3,8.1,6.8,-4.3,-99.9,79,42,24,30.38,30.11,14,-22,26,0.00
2013-2-16,43.5,34.4,27.2,9.3,4.7,-0.8,43,29,19,30.20,29.81,15,6,29,0.00
2013-2-17,46.4,36.0,23.3,13.1,-1.8,-10.2,54,21,12,29.84,29.42,12,4,35,0.00
2013-2-18,26.6,22.2,11.6,3.7,-3.5,-10.2,53,33,20,30.11,29.58,7,2,14,0.00
2013-2-19,46.2,25.9,8.3,1.5,-12.0,-29.0,55,24,6,30.14,29.69,5,0,9,0.00
2013-2-20,37.9,18.8,12.8,15.5,-15.1,-99.9,82,38,23,29.80,28.99,152,-156,152,0.00
2013-2-21,25.7,11.9,7.9,16.6,-21.0,-99.9,82,55,65,30.05,29.06,6,-216,7,0.09
2013-2-22,29.4,18.2,8.1,16.1,-18.6,-99.9,80,38,31,29.98,29.17,12,-70,14,0.01
2013-2-23,35.6,28.7,20.2,18.5,11.9,6.9,83,52,31,29.68,29.52,10,2,17,0.00
2013-2-24,22.9,13.4,3.0,16.0,-14.3,-99.9,84,60,58,30.40,29.61,1,-167,1,0.00
2013-2-25,37.9,21.9,-1.2,13.0,0.1,-7.8,77,43,18,30.47,29.64,4,1,14,0.10
2013-2-26,32.2,24.0,18.1,17.9,7.2,-1.2,76,49,32,30.12,29.61,6,1,18,0.02
2013-2-27,27.5,20.6,14.0,1.8,-6.1,-15.0,45,31,20,30.34,30.10,6,2,16,0.00
2013-2-28,32.8,25.2,18.9,6.0,-0.9,-7.9,42,32,24,30.30,30.13,9,3,21,0.00
2013-3-1,40.2,33.2,23.9,16.1,8.4,-4.1,44,35,24,30.29,30.13,9,3,22,0.00
2013-3-2,46.0,40.3,34.7,17.8,15.8,11.6,48,37,27,30.21,29.85,9,3,20,0.00
2013-3-3,50.5,41.5,32.7,28.1,16.5,10.8,83,38,22,29.85,29.41,11,3,22,0.00
2013-3-4,36.2,26.3,18.4,28.4,10.2,-8.0,88,52,28,30.21,29.51,10,2,19,0.03
2013-3-5,45.2,32.4,15.9,-2.2,-8.9,-21.1,44,18,7,30.26,29.98,6,2,18,0.00
2013-3-6,53.5,43.8,24.1,9.6,3.5,-11.5,30,19,11,30.01,29.54,7,2,22,0.00
2013-3-7,56.9,43.5,25.8,15.7,9.8,2.1,60,28,11,29.86,29.51,8,2,20,0.00
2013-3-8,54.4,33.3,23.5,24.8,15.0,8.8,83,51,18,29.91,29.50,5,0,7,0.00
2013-3-9,30.7,25.8,15.9,25.6,17.6,3.6,89,72,45,30.10,29.40,6,0,8,0.14
2013-3-10,41.1,29.7,16.1,17.9,4.4,-6.3,62,35,23,30.13,29.93,11,3,27,0.02
2013-3-11,39.6,31.9,23.6,24.4,14.5,7.9,87,50,32,30.03,29.74,14,6,32,0.00
2013-3-12,42.5,30.6,19.7,24.9,18.3,15.1,87,63,37,30.22,30.03,8,1,24,0.11
2013-3-13,52.6,43.6,37.9,20.0,16.8,11.6,45,34,20,30.09,29.97,14,5,40,0.00
2013-3-14,56.7,49.2,43.3,17.0,13.0,6.6,32,23,16,30.08,29.87,10,4,26,0.00
2013-3-15,61.2,52.7,46.1,22.8,15.3,11.7,37,23,17,29.85,29.56,11,4,26,0.00
2013-3-16,49.5,40.4,31.5,27.8,20.7,12.2,69,47,27,29.77,29.55,6,1,19,0.00
2013-3-17,41.6,33.7,23.3,25.3,14.7,-5.4,83,47,27,29.73,29.36,9,3,26,0.01
2013-3-18,32.7,26.2,19.7,18.5,1.6,-99.9,67,36,23,29.93,29.55,13,-11,25,0.00
2013-3-19,40.1,30.7,20.5,6.9,-6.8,-19.7,55,22,7,30.27,29.85,8,3,26,0.00
2013-3-20,49.8,35.3,11.4,22.2,7.2,-15.3,71,36,11,30.28,29.53,10,3,25,0.00
2013-3-21,45.5,35.7,26.6,27.9,13.1,-5.0,80,41,20,29.67,29.33,12,4,27,0.02
2013-3-22,36.8,24.6,17.3,19.5,2.3,-99.9,84,48,19,29.83,29.57,11,-29,18,0.00
2013-3-23,19.4,12.9,-0.6,12.7,5.6,-7.5,82,72,59,30.39,29.79,1,0,5,0.01
2013-3-24,21.6,9.5,-5.0,5.0,-3.6,-12.2,78,57,30,30.39,30.26,5,1,14,0.12
2013-3-25,8.1,6.1,1.5,0.4,-1.7,-5.9,72,70,67,30.36,30.29,0,0,0,0.00
2013-3-28,57.6,42.8,23.3,26.9,21.6,14.2,80,47,23,30.09,29.63,7,0,13,0.00
2013-3-29,52.6,41.5,27.8,33.0,23.8,19.3,81,51,34,30.05,29.84,6,1,24,0.00
2013-3-30,51.6,42.1,29.0,32.5,21.6,13.2,80,47,23,30.03,29.81,6,1,22,0.01
2013-3-31,57.2,42.4,23.6,24.0,12.2,-4.3,86,36,8,30.06,29.72,8,2,25,0.01
2013-4-1,47.9,34.1,23.2,30.0,23.5,16.8,90,67,41,30.04,29.86,8,1,17,0.00
2013-4-2,35.8,31.8,30.0,32.0,29.0,27.2,91,89,83,30.03,29.86,5,0,7,0.16
2013-4-3,53.2,35.5,16.9,36.2,22.8,9.1,91,65,21,30.19,29.89,6,0,13,0.19
2013-4-4,57.5,45.1,39.1,25.8,20.9,13.5,54,39,21,30.02,29.74,5,1,12,0.00
2013-4-5,60.2,49.3,38.6,33.2,19.4,13.8,77,32,21,29.74,29.41,9,2,29,0.03
2013-4-6,52.8,43.4,36.8,28.8,17.6,11.9,65,36,21,29.79,29.59,8,2,22,0.00
2013-4-7,48.3,40.7,35.9,31.3,23.3,16.1,74,51,30,29.67,29.50,9,2,19,0.05
2013-4-8,56.0,39.7,27.2,31.8,23.6,16.9,89,56,25,29.55,29.23,4,0,7,0.01
2013-4-9,27.0,15.8,6.7,22.5,7.5,-0.7,83,69,56,30.28,29.47,3,0,5,0.06
2013-4-10,30.4,17.9,-0.2,21.1,6.6,-7.1,75,63,30,30.31,29.81,11,2,16,0.01
2013-4-11,45.5,37.1,29.3,23.9,17.1,7.5,54,44,36,29.80,29.60,10,2,16,0.02
2013-4-12,48.3,35.8,25.6,25.3,19.3,6.8,86,57,19,29.89,29.68,8,2,20,0.00
2013-4-13,52.9,40.2,23.8,32.2,16.9,-99.9,90,46,18,29.81,29.24,12,-7,37,0.10
2013-4-14,32.9,28.3,24.5,27.6,7.4,-7.3,83,44,23,29.74,29.30,11,3,24,0.01
2013-4-15,27.5,22.8,16.4,20.3,16.8,9.6,84,78,48,30.01,29.66,2,0,11,0.00
2013-4-16,30.1,22.3,15.2,20.9,16.4,10.1,86,78,65,30.04,29.83,2,0,2,0.13
2013-4-17,25.0,19.1,5.0,17.3,13.1,-0.8,87,77,65,30.25,29.90,3,0,5,0.00
2013-4-18,26.4,14.7,-3.1,4.2,-1.6,-10.4,77,51,31,30.35,30.17,8,2,17,0.02
2013-4-19,39.6,31.1,23.6,20.1,11.3,2.5,50,43,36,30.16,29.85,9,4,22,0.07
2013-4-20,45.7,38.2,32.7,28.6,21.3,16.0,66,51,33,29.88,29.72,6,2,14,0.00
2013-4-21,47.9,38.9,33.8,28.2,19.2,14.8,73,46,28,29.97,29.82,7,2,14,0.00
2013-4-22,42.3,24.6,14.9,29.2,7.0,-99.9,86,65,42,30.24,29.58,9,-91,10,0.04
2013-4-23,31.3,21.1,12.1,19.9,10.6,5.0,82,65,43,30.33,30.11,3,0,8,0.30
2013-4-24,37.3,26.4,20.8,11.4,6.7,2.7,53,43,24,30.20,30.09,5,1,5,0.01
2013-4-25,58.6,41.9,23.5,24.4,9.8,-0.8,67,30,15,30.16,29.66,8,2,16,0.00
2013-4-26,59.8,42.0,26.7,23.7,17.4,9.5,70,43,16,30.14,29.85,4,0,8,0.00
2013-4-27,61.5,48.4,29.4,21.7,13.5,5.1,66,29,11,30.07,29.76,5,2,17,0.00
2013-4-28,65.6,55.2,47.9,32.7,17.9,10.7,53,24,15,29.77,29.52,7,3,26,0.00
2013-4-29,68.1,55.7,40.2,32.8,20.4,13.5,61,28,14,29.66,29.26,10,3,24,0.00
2013-4-30,55.6,45.7,32.5,36.2,28.6,18.6,91,56,24,29.78,29.21,9,2,29,0.20
2013-5-1,32.5,25.0,12.6,30.2,20.0,7.6,91,81,62,30.69,29.79,0,0,0,0.08
2013-5-2,37.2,24.5,3.5,27.3,13.0,-2.1,85,64,35,30.90,30.30,4,1,14,0.84
2013-5-3,53.2,41.7,31.6,29.6,16.9,4.9,74,38,20,30.30,29.87,4,1,12,0.02
2013-5-4,48.0,37.9,27.2,27.9,23.9,20.0,80,59,34,30.10,29.92,2,0,6,0.00
2013-5-5,53.8,38.9,26.6,33.8,25.3,18.5,88,61,32,30.10,29.90,5,1,10,0.02
2013-5-6,59.5,44.5,30.9,34.1,30.1,23.9,90,61,30,29.96,29.69,7,0,10,0.01
2013-5-7,59.2,47.7,34.6,36.2,28.3,22.5,77,49,27,29.75,29.61,7,2,21,0.00
2013-5-8,56.0,40.2,32.4,37.7,31.8,27.2,92,74,34,30.02,29.69,6,0,11,0.60
2013-5-9,46.8,38.0,32.5,42.5,33.7,29.8,94,85,65,30.18,29.89,5,0,11,0.58
2013-5-10,57.6,43.1,29.8,36.4,29.7,18.6,93,64,26,30.17,30.01,7,0,11,0.01
2013-5-11,60.9,45.6,32.1,41.2,31.0,19.6,86,60,21,30.27,29.98,8,1,19,0.02
2013-5-12,67.9,56.9,41.2,32.9,26.0,21.3,65,33,19,30.06,29.78,6,2,16,0.01
2013-5-13,75.1,65.3,48.6,35.3,29.7,24.4,57,28,16,29.84,29.65,6,2,13,0.00
2013-5-14,73.3,63.0,47.7,36.4,30.1,24.4,58,30,18,29.74,29.54,5,2,19,0.00
2013-5-15,55.0,49.4,45.1,41.1,36.1,30.8,78,61,47,29.69,29.53,1,0,1,0.00
2013-5-16,68.8,57.6,43.5,38.4,30.7,21.7,79,38,18,29.69,29.46,7,2,16,0.00
2013-5-17,74.9,62.0,39.3,38.0,22.0,11.6,75,27,11,29.67,29.42,6,1,19,0.00
2013-5-18,62.6,51.9,43.8,39.1,24.3,13.0,68,36,16,29.69,29.43,6,1,17,0.04
2013-5-19,56.0,48.6,43.2,27.4,24.2,20.0,51,39,25,29.65,29.49,6,3,22,0.00
2013-5-20,53.5,47.0,40.6,33.6,26.5,19.8,72,46,32,29.80,29.55,5,2,18,0.00
2013-5-21,58.4,48.0,40.5,27.3,20.6,13.1,56,35,22,29.83,29.64,5,2,13,0.00
2013-5-22,66.3,51.4,33.7,43.4,30.6,19.0,88,50,18,29.79,29.57,3,0,10,0.10
2013-5-23,57.5,49.2,42.5,45.5,42.6,39.9,92,79,61,29.79,29.69,3,0,8,0.02
2013-5-24,74.9,56.4,37.5,42.2,30.4,16.5,88,47,13,29.76,29.60,5,1,13,0.00
2013-5-25,76.3,56.2,37.6,35.6,23.9,9.0,79,40,8,29.76,29.46,7,1,12,0.00
2013-5-26,74.7,59.2,44.9,30.7,21.6,11.0,46,26,9,29.81,29.38,4,1,7,0.00
2013-5-27,69.4,59.8,45.2,27.8,18.0,6.8,47,21,13,29.55,29.36,7,1,12,0.00
2013-5-28,68.6,54.3,36.6,39.4,26.9,17.3,64,38,16,29.55,29.23,3,0,9,0.00
2013-5-29,54.4,46.0,40.8,39.3,31.1,24.9,87,57,35,29.53,29.24,8,2,24,0.17
2013-5-30,53.9,46.5,40.9,28.9,22.3,15.9,62,39,22,29.66,29.42,13,5,39,0.00
2013-5-31,57.3,48.7,40.3,17.5,13.8,6.8,38,25,17,29.76,29.58,10,4,25,0.00
2013-6-1,62.6,50.2,40.3,35.8,27.4,13.8,61,42,24,30.00,29.77,5,1,17,0.00
2013-6-2,75.6,53.4,30.3,36.2,28.1,15.1,79,45,14,30.00,29.53,11,1,16,0.00
2013-6-3,75.6,57.0,43.2,31.4,15.8,-99.9,50,24,15,29.63,29.36,8,-50,19,0.00
2013-6-4,66.8,41.1,39.5,44.9,-0.8,-99.9,76,38,15,29.88,29.33,6,-240,11,0.00
2013-6-5,63.4,50.1,40.8,43.7,38.4,35.4,84,66,41,30.04,29.76,8,1,11,0.00
2013-6-6,69.4,57.4,34.6,40.0,34.5,29.0,92,47,25,30.04,29.77,6,0,10,0.00
2013-6-7,73.3,57.4,39.5,40.7,33.9,24.8,80,46,18,29.86,29.40,9,1,19,0.00
2013-6-8,72.0,63.2,48.9,45.8,33.6,25.1,60,35,19,29.77,29.30,6,2,12,0.00
2013-6-9,81.6,71.3,56.6,30.8,28.2,25.3,35,21,13,29.66,29.52,4,1,14,0.00
2013-6-10,85.3,72.3,57.8,36.6,28.4,23.5,35,20,11,29.61,29.37,6,1,17,0.00
2013-6-11,81.1,68.3,50.1,35.6,21.0,12.5,44,19,8,29.55,29.43,7,2,20,0.00
2013-6-12,82.8,69.0,49.8,45.1,26.6,15.0,56,22,11,29.78,29.49,7,1,18,0.00
2013-6-13,84.5,65.7,47.0,46.4,36.5,22.7,74,42,11,29.75,29.45,6,1,13,0.00
2013-6-14,80.9,65.4,49.1,41.7,31.0,10.4,60,33,9,29.63,29.47,5,1,14,0.00
2013-6-15,73.7,58.8,42.8,44.9,41.3,36.2,83,55,32,29.75,29.58,9,0,12,0.00
2013-6-16,73.5,58.7,46.7,43.6,33.8,20.8,78,43,16,29.99,29.66,7,1,15,0.00
2013-6-17,74.2,59.0,42.3,48.6,36.7,25.6,74,46,22,29.95,29.71,12,1,15,0.01
2013-6-18,77.2,59.5,43.1,45.7,39.6,30.0,85,53,18,29.87,29.36,3,0,8,0.00
2013-6-19,83.8,65.5,41.9,42.8,24.7,2.7,86,34,6,29.68,29.31,6,1,19,0.00
2013-6-20,79.0,63.3,46.0,30.7,21.5,9.1,38,21,13,29.58,29.37,3,1,8,0.00
2013-6-21,81.6,64.2,43.3,37.2,23.6,9.6,65,29,7,29.59,29.40,7,2,19,0.00
2013-6-22,77.9,61.4,43.3,42.9,29.4,17.9,72,36,12,29.57,29.46,6,1,19,0.00
2013-6-23,75.8,59.8,41.3,46.7,34.3,19.7,55,39,24,29.67,29.49,7,1,16,0.00
2013-6-24,77.2,63.2,42.5,41.6,24.5,11.8,71,31,9,29.62,29.39,7,2,27,0.00
2013-6-25,76.5,66.6,54.4,35.1,27.7,19.6,38,23,18,29.68,29.37,6,2,20,0.00
2013-6-26,87.0,67.2,44.9,37.5,31.4,27.6,59,30,14,29.77,29.63,5,1,16,0.00
2013-6-27,91.2,72.6,53.3,39.0,31.1,19.9,42,25,9,29.82,29.64,5,1,13,0.00
2013-6-28,86.5,69.0,51.0,58.5,42.9,27.4,69,42,13,29.82,29.68,7,1,17,0.01
2013-6-29,78.5,62.5,49.2,56.2,46.1,39.2,82,58,26,29.91,29.72,5,0,12,0.07
2013-6-30,72.7,59.9,52.5,57.2,50.0,45.8,91,71,41,29.92,29.71,4,0,7,0.39
2013-7-1,72.3,57.7,43.8,55.8,47.1,41.1,92,70,40,29.98,29.85,3,0,8,0.28
2013-7-2,75.1,59.1,44.2,51.9,44.9,38.3,95,64,31,29.98,29.80,5,0,11,0.01
2013-7-3,79.0,59.2,42.6,51.8,42.4,33.8,87,60,22,29.82,29.55,5,0,11,0.13
2013-7-4,79.4,66.9,55.3,47.2,40.5,35.2,65,40,23,29.73,29.49,2,0,7,0.00
2013-7-5,78.1,64.0,52.5,50.6,45.5,41.6,78,53,29,29.61,29.42,5,1,14,0.02
2013-7-6,79.0,64.0,51.7,49.7,45.6,40.1,89,55,26,29.72,29.46,8,1,25,0.10
2013-7-7,77.0,61.1,49.2,53.1,46.1,39.8,94,63,28,29.70,29.54,7,1,30,0.02
2013-7-8,78.6,69.5,56.9,45.7,39.2,31.1,61,34,20,29.78,29.57,7,1,17,0.00
2013-7-9,81.6,69.0,54.7,42.9,35.1,26.0,57,32,13,29.86,29.67,4,1,11,0.00
2013-7-10,83.6,65.5,48.2,53.2,42.5,37.6,69,46,23,29.85,29.63,6,1,12,0.00
2013-7-11,57.2,54.6,52.3,44.8,44.3,43.4,73,68,61,29.75,29.63,0,0,0,0.00
2013-7-13,80.3,65.6,52.9,57.1,49.8,40.6,92,62,28,29.85,29.59,5,1,10,0.35
2013-7-14,69.4,58.4,48.6,56.9,52.1,46.7,94,81,53,29.96,29.71,2,0,6,0.06
2013-7-15,75.4,60.7,54.1,58.5,53.5,49.7,93,79,50,29.88,29.67,3,0,6,0.02
2013-7-16,76.7,61.1,45.8,50.5,45.3,38.8,93,61,27,29.87,29.73,3,0,7,0.00
2013-7-17,83.8,65.0,46.4,51.7,45.9,41.5,85,55,28,29.88,29.71,4,0,12,0.00
2013-7-18,82.0,63.9,55.4,55.5,48.8,38.7,93,63,27,29.87,29.59,4,0,11,0.33
2013-7-19,75.3,61.9,50.5,56.0,52.4,48.1,94,74,44,29.91,29.70,2,0,6,0.00
2013-7-20,81.6,62.7,47.0,55.2,45.9,38.8,82,59,22,29.75,29.55,4,0,8,0.00
2013-7-21,84.0,74.0,56.2,47.1,36.2,20.8,52,29,11,29.60,29.39,7,1,11,0.00
2013-7-22,85.7,70.6,53.1,40.3,23.8,12.0,47,21,7,29.63,29.43,6,1,16,0.00
2013-7-23,84.9,67.3,50.8,51.5,33.2,11.1,68,32,7,29.73,29.55,7,1,11,0.00
2013-7-24,77.7,61.3,51.1,56.9,50.0,43.3,87,68,42,29.93,29.67,3,0,7,0.13
2013-7-25,69.8,58.9,53.1,53.5,48.0,40.8,88,69,36,29.95,29.70,4,0,10,0.26
2013-7-26,76.5,61.3,45.7,50.9,44.0,38.8,88,57,27,30.02,29.80,3,0,10,0.00
2013-7-27,78.8,60.2,46.4,53.5,45.2,33.3,92,62,23,29.84,29.57,7,1,10,0.31
2013-7-28,71.5,57.6,51.6,56.0,51.4,44.4,92,81,39,29.69,29.54,7,0,11,0.04
2013-7-29,68.3,59.7,50.4,51.6,44.4,39.6,91,59,38,29.88,29.50,6,1,12,0.17
2013-7-30,78.8,64.1,48.6,48.1,42.7,31.0,83,50,18,29.98,29.74,5,1,17,0.04
2013-7-31,78.3,64.5,48.9,50.4,42.0,30.4,76,48,20,29.99,29.77,6,0,11,0.00
2013-8-1,78.5,63.9,47.3,48.1,41.5,34.9,83,49,22,29.85,29.52,5,1,10,0.00
2013-8-2,81.2,70.6,57.6,49.8,41.3,35.0,73,36,19,29.65,29.50,6,2,18,0.00
2013-8-3,81.8,65.0,51.6,54.4,44.5,32.1,77,52,20,29.83,29.60,4,1,8,0.00
2013-8-4,79.4,66.3,50.1,47.6,39.8,29.9,82,41,17,29.86,29.60,4,1,11,0.00
2013-8-5,67.3,64.0,56.6,39.5,36.5,34.3,52,37,30,29.72,29.60,4,1,7,0.00
2013-8-6,77.4,66.5,54.2,40.1,34.9,28.1,48,32,19,29.70,29.55,6,1,18,0.00
2013-8-7,67.3,57.0,46.8,45.9,40.2,34.4,80,55,34,29.81,29.66,3,0,3,0.00
2013-8-8,70.4,55.6,42.2,52.4,41.4,35.1,83,61,36,29.91,29.74,3,0,6,0.21
2013-8-9,68.3,52.0,42.8,49.5,44.7,40.4,94,78,40,30.08,29.79,3,0,7,0.33
2013-8-10,75.1,58.7,41.6,50.1,40.7,32.3,91,58,22,30.08,29.75,5,0,12,0.04
2013-8-11,69.6,58.5,48.9,51.1,44.2,38.7,86,60,36,29.92,29.77,2,0,4,0.07
2013-8-12,70.9,55.4,42.8,51.6,43.5,38.6,87,67,34,30.05,29.80,4,0,10,0.23
2013-8-13,65.3,52.7,42.8,53.1,44.2,39.2,90,74,46,30.09,29.82,3,0,5,0.21
2013-8-14,74.7,57.0,41.6,45.2,39.3,32.9,86,56,24,30.07,29.80,3,0,5,0.00
2013-8-15,77.7,60.5,43.5,42.1,33.9,22.2,71,43,14,29.92,29.75,6,1,11,0.00
2013-8-16,84.0,62.1,43.8,45.3,37.2,24.6,78,46,14,29.95,29.75,3,0,11,0.00
2013-8-17,85.1,65.4,46.2,39.6,31.5,16.5,71,35,10,29.85,29.64,3,0,6,0.00
2013-8-18,82.0,69.9,53.1,40.5,34.3,28.6,47,28,16,29.75,29.54,5,1,11,0.00
2013-8-19,85.9,68.2,51.6,40.4,36.1,25.4,58,34,13,29.88,29.59,3,0,6,0.00
2013-8-20,87.4,68.3,52.0,38.5,34.5,27.1,55,32,12,29.73,29.50,3,0,8,0.00
2013-8-21,79.9,67.4,57.6,54.5,41.2,36.4,60,40,25,29.75,29.56,4,0,8,0.01
2013-8-22,76.7,59.1,49.9,58.4,49.1,42.0,92,71,39,29.98,29.73,3,0,7,0.31
2013-8-23,77.2,63.4,52.6,51.6,46.6,37.9,90,58,25,29.84,29.61,4,0,9,0.08
2013-8-24,76.1,61.3,47.7,50.1,44.2,34.6,87,58,26,29.81,29.64,3,0,14,0.07
2013-8-25,77.2,60.2,47.4,52.9,47.1,40.1,86,66,30,29.89,29.73,2,0,6,0.03
2013-8-26,76.5,62.7,50.8,49.6,45.7,41.9,85,57,30,29.81,29.70,6,2,18,0.00
2013-8-27,79.8,64.1,50.7,55.6,49.8,44.6,88,62,32,29.89,29.68,6,0,16,0.14
2013-8-28,81.1,62.6,49.2,53.5,46.2,35.2,91,60,27,29.87,29.69,2,0,6,0.01
2013-8-29,83.2,62.6,51.4,53.2,45.0,39.2,91,58,23,30.02,29.74,4,0,20,0.37
2013-8-30,78.3,61.8,49.1,54.1,48.4,43.1,91,66,31,30.00,29.64,4,0,10,0.13
2013-8-31,79.2,61.9,50.2,55.7,45.9,36.8,82,58,23,29.87,29.58,3,0,11,0.05
2013-9-1,70.6,57.2,48.0,56.8,49.5,43.7,90,77,55,29.94,29.78,2,0,8,0.07
2013-9-2,82.0,63.7,48.2,51.7,46.5,40.9,91,60,25,29.90,29.64,3,0,10,0.00
2013-9-3,84.7,68.8,54.7,51.9,45.3,36.8,75,47,21,29.76,29.58,4,1,12,0.00
2013-9-4,82.8,60.1,51.4,57.4,49.6,40.9,91,72,24,30.05,29.68,2,0,6,0.72
2013-9-5,83.4,63.6,50.8,57.6,49.7,41.8,86,64,24,29.99,29.73,2,0,11,0.00
2013-9-6,79.6,63.3,54.8,58.7,46.3,39.4,86,56,24,29.89,29.70,4,0,14,0.17
2013-9-7,81.8,64.1,49.9,50.5,45.0,39.5,80,54,24,29.90,29.64,3,0,20,0.00
2013-9-8,78.1,60.2,48.9,54.9,45.6,39.2,79,61,28,29.79,29.46,5,0,16,0.06
2013-9-9,72.3,60.1,54.4,55.4,48.7,41.2,93,68,42,29.69,29.46,3,0,12,0.38
2013-9-10,57.2,53.7,50.8,53.4,51.2,48.8,94,92,79,29.93,29.62,2,0,6,0.39
2013-9-11,53.1,52.4,52.3,51.1,50.3,50.0,94,93,92,29.91,29.89,0,0,0,0.23
2013-9-12,53.6,53.5,51.9,52.2,51.9,50.5,95,94,94,29.92,29.88,0,0,0,0.92
2013-9-13,67.8,56.0,49.5,55.4,51.1,44.8,96,85,46,29.90,29.54,2,0,0,0.27
2013-9-14,66.3,53.1,44.1,51.3,45.8,-99.9,95,79,41,29.74,29.59,4,0,0,0.12
2013-9-15,51.4,49.2,47.4,50.0,47.6,45.5,95,94,88,30.02,29.68,1,0,2,0.65
2013-9-16,66.3,50.6,45.2,52.3,45.8,40.3,94,85,42,30.01,29.73,3,0,7,0.01
2013-9-17,73.2,59.5,47.4,45.3,39.1,22.7,83,49,17,29.79,29.50,3,0,19,0.00
2013-9-18,65.0,57.4,48.5,46.3,39.9,34.2,83,53,37,29.67,29.40,6,1,27,0.09
2013-9-19,58.7,48.9,39.3,43.6,39.7,35.4,92,72,46,30.04,29.55,7,0,19,0.12
2013-9-20,68.3,47.4,32.8,45.4,37.8,30.7,95,74,35,30.08,29.76,3,0,10,0.00
2013-9-21,73.0,58.2,40.1,42.2,32.5,24.2,87,42,19,29.81,29.45,4,1,16,0.00
2013-9-22,61.6,50.9,44.2,49.0,39.6,34.3,93,67,38,29.56,29.32,9,1,24,0.23
2013-9-23,54.7,47.8,43.3,41.8,30.3,25.2,89,52,35,29.87,29.27,9,3,24,0.05
2013-9-24,68.8,53.8,43.6,29.8,22.0,8.2,51,31,10,29.89,29.58,6,2,20,0.00
2013-9-25,74.0,60.5,47.0,31.3,20.9,9.6,47,23,13,29.58,29.07,5,1,14,0.00
2013-9-26,65.2,48.9,39.3,43.3,35.6,26.8,89,62,39,29.59,29.21,3,0,10,0.00
2013-9-27,45.7,42.8,39.6,42.6,38.5,33.1,91,85,63,29.62,29.40,3,0,0,0.11
2013-9-29,65.5,57.2,50.2,24.3,16.9,13.3,25,20,17,29.84,29.59,9,3,17,0.00
2013-9-30,71.8,60.6,54.4,29.0,22.0,15.9,33,23,18,29.63,29.41,9,2,22,0.00
2013-10-1,69.1,54.2,40.5,42.4,32.9,20.4,83,48,23,29.85,29.52,2,0,8,0.00
2013-10-2,69.1,51.1,37.6,38.0,30.8,18.4,83,52,17,29.83,29.60,2,0,10,0.00
2013-10-3,65.3,47.0,36.2,40.0,33.3,22.4,92,64,21,29.62,29.40,4,0,10,0.25
2013-10-4,40.5,32.9,28.2,38.4,20.9,6.8,92,63,38,30.16,29.39,9,2,21,0.24
2013-10-5,46.2,36.8,29.1,10.9,7.1,-0.8,46,31,17,30.18,30.02,9,4,32,0.00
2013-10-6,63.1,54.9,44.3,27.2,23.4,18.7,47,30,20,30.07,29.90,4,1,11,0.00
2013-10-7,68.6,57.4,48.5,23.0,12.3,1.7,36,18,8,29.92,29.52,5,1,13,0.00
2013-10-8,68.9,56.5,41.8,29.1,18.3,8.8,59,25,13,29.60,29.35,8,2,20,0.00
2013-10-9,62.1,49.6,39.1,37.1,30.6,19.8,81,51,26,29.82,29.42,1,0,6,0.00
2013-10-10,51.9,42.2,35.6,42.0,32.3,21.5,87,69,42,29.66,29.30,8,2,22,0.03
2013-10-11,45.2,41.6,35.6,26.3,23.9,21.0,59,49,41,29.90,29.24,14,5,30,0.00
2013-10-12,53.9,37.7,27.6,32.7,26.9,16.4,90,69,25,30.10,29.86,4,0,10,0.00
2013-10-13,61.0,40.1,27.8,37.5,29.9,23.5,91,71,24,30.11,29.58,1,0,4,0.01
2013-10-14,45.8,40.2,32.9,32.4,26.1,19.8,81,58,42,30.01,29.56,8,1,19,0.01
2013-10-15,33.7,30.0,27.9,28.1,24.8,21.6,87,81,67,30.19,29.97,6,0,10,0.01
2013-10-16,44.6,34.3,21.9,21.8,15.0,3.5,86,49,22,30.15,29.88,8,2,19,0.02
2013-10-17,44.6,36.5,30.1,27.4,18.2,10.9,89,50,27,29.95,29.81,6,1,17,0.00
2013-10-18,36.2,30.2,20.3,27.2,15.1,7.1,89,57,32,30.19,29.86,9,2,20,0.21
2013-10-19,49.5,41.8,34.7,17.0,13.8,11.2,41,32,26,30.03,29.75,10,5,21,0.01
2013-10-20,43.5,36.7,23.8,30.9,20.0,-99.9,89,58,33,30.06,29.68,5,1,14,0.00
2013-10-21,45.7,35.3,20.3,21.1,18.7,15.5,87,54,34,30.22,29.96,4,1,11,0.05
2013-10-22,55.6,48.2,42.3,23.7,20.0,16.8,40,33,27,30.00,29.87,7,2,12,0.00
2013-10-23,59.8,45.6,30.6,30.6,22.5,15.7,82,44,20,30.06,29.78,3,0,16,0.00
2013-10-24,61.0,34.2,25.8,31.0,4.3,-99.9,86,49,22,30.20,29.96,2,-147,7,0.00
2013-10-25,65.8,42.2,27.3,28.0,21.5,16.2,75,49,17,30.20,29.88,3,0,7,0.00
2013-10-26,59.2,38.3,26.0,31.9,24.1,15.8,78,60,28,30.34,29.86,2,0,5,0.00
2013-10-27,57.2,47.9,34.3,21.9,17.6,12.4,57,31,23,29.94,29.60,6,1,18,0.00
2013-10-28,36.5,31.0,26.0,28.4,24.1,20.2,89,76,56,29.98,29.69,2,0,7,0.00
2013-10-29,50.8,33.1,23.8,31.5,24.2,16.6,91,74,26,29.98,29.68,5,0,17,0.01
2013-10-30,39.2,34.3,31.2,30.1,19.1,13.4,91,55,40,29.78,29.56,10,3,28,0.05
2013-10-31,37.9,33.4,31.0,21.7,14.8,8.0,62,46,34,29.84,29.71,14,6,37,0.00
2013-11-1,40.3,36.3,33.5,24.0,16.3,10.4,67,45,32,30.10,29.79,5,1,17,0.00
2013-11-2,54.5,45.2,36.8,13.9,4.4,-6.8,38,21,8,30.08,29.69,8,2,26,0.00
2013-11-3,52.5,43.8,29.0,23.6,11.4,-99.9,66,30,18,29.62,29.29,11,-17,19,0.00
2013-11-4,36.5,28.5,23.2,18.2,12.3,5.8,68,51,36,29.97,29.58,10,2,20,0.00
2013-11-5,29.8,25.2,22.2,16.4,2.9,-9.5,74,40,22,30.18,29.83,10,3,16,0.00
2013-11-6,35.2,30.5,23.0,15.6,9.4,-2.4,50,41,31,30.27,30.10,12,6,27,0.00
2013-11-7,51.6,41.8,33.5,17.0,15.0,12.0,47,34,23,30.31,29.73,11,2,25,0.00
2013-11-8,52.9,46.5,36.9,16.3,12.4,6.1,41,25,19,29.88,29.50,18,4,29,0.00
2013-11-9,42.9,40.9,37.5,14.8,13.8,13.1,39,33,30,29.88,29.79,3,1,5,0.00
2013-12-4,6.7,0.3,-9.8,-1.8,-19.3,-99.9,74,70,61,30.32,29.78,4,0,0,0.00
2013-12-5,9.5,-3.1,-14.3,-0.9,-13.9,-99.9,71,65,43,30.48,30.05,5,0,5,0.02
2013-12-6,11.4,-0.2,-12.8,-3.3,-10.2,-20.9,72,63,41,30.57,30.30,5,0,7,0.00
2013-12-7,22.1,8.1,-4.3,6.2,-2.7,-11.3,74,62,44,30.34,29.66,7,0,10,0.00
2013-12-8,17.8,11.7,7.7,2.5,-3.4,-14.5,72,52,33,30.09,29.63,4,0,16,0.00
2013-12-9,14.4,7.6,-0.6,-5.0,-13.7,-20.6,63,37,27,30.39,30.08,24,7,31,0.01
2013-12-10,25.8,21.6,12.8,7.4,1.8,-6.4,49,42,35,30.36,30.01,18,8,37,0.00
2013-12-11,38.3,29.2,22.4,3.5,-4.6,-99.9,41,25,12,30.30,30.17,12,-6,29,0.00
2013-12-12,49.5,38.9,37.2,1.7,-11.0,-99.9,19,13,9,30.18,29.65,19,-57,28,0.00
2013-12-13,40.2,32.4,25.4,9.1,-1.5,-99.9,43,27,17,30.03,29.67,20,-43,21,0.00
2013-12-14,32.5,28.7,24.5,10.7,4.2,0.6,45,35,27,30.25,30.03,27,3,27,0.00
2013-12-15,40.6,35.7,28.8,12.7,10.0,7.4,44,34,26,30.18,29.99,14,7,31,0.00
2013-12-16,43.9,39.6,36.9,15.0,10.0,3.4,39,30,22,30.12,29.98,14,7,35,0.00
2013-12-17,49.4,43.1,37.0,9.8,7.4,4.1,30,23,17,30.17,29.89,9,2,22,0.00
2013-12-18,50.5,45.0,39.5,11.9,5.2,-99.9,29,19,15,29.91,29.49,10,-1,21,0.00
2013-12-19,46.8,28.8,17.2,22.1,-8.2,-99.9,82,38,21,29.66,29.23,12,-169,21,0.00
2013-12-20,33.7,20.8,12.1,25.6,-4.2,-99.9,84,51,35,29.76,29.39,9,-87,19,0.00
2013-12-21,29.0,23.0,16.5,16.9,-0.9,-99.9,82,46,32,29.84,29.33,10,-50,14,0.00
2013-12-22,26.4,20.2,11.1,13.1,-4.0,-99.9,76,45,37,30.14,29.83,17,-44,21,0.00
2013-12-23,34.6,26.1,10.2,17.2,11.5,4.8,80,55,39,30.31,30.03,13,4,32,0.00
2013-12-24,35.3,28.8,21.9,26.6,8.0,-99.9,81,46,28,30.26,29.94,15,-7,27,0.01
2013-12-25,35.5,28.9,21.9,1.8,-0.9,-6.1,38,28,18,30.41,30.15,9,3,22,0.00
2013-12-26,39.8,35.8,32.8,10.2,3.2,-8.4,33,25,15,30.22,30.09,11,3,28,0.00
2013-12-27,50.5,38.6,28.5,17.7,14.3,7.6,59,38,24,30.19,29.86,5,1,8,0.00
2013-12-28,43.3,35.6,17.0,19.0,14.3,7.6,81,45,25,30.07,29.65,8,2,24,0.00
2013-12-29,29.5,19.9,4.5,16.1,3.8,-4.6,83,55,24,30.38,29.92,13,3,22,0.04
2013-12-30,32.7,29.7,25.6,10.7,6.8,3.5,46,38,30,30.19,29.88,9,3,29,0.00
2013-12-31,37.9,34.1,30.7,18.7,15.5,9.4,56,46,37,30.00,29.80,13,6,28,0.00
2014-1-1,34.4,26.8,17.5,23.1,11.6,2.5,77,53,35,30.27,29.76,7,1,31,0.00
2014-1-2,42.2,35.0,26.0,12.3,4.3,-4.7,39,27,17,30.23,29.83,13,4,31,0.00